Regional Weather Roundup
Issued by NWS

Home | Current Version | Previous Version | Text Only | Print | Product List | Glossary Off
Versions: 1 2 3 4 5 6 7 8 9 10 11 12 13 14 15 16 17 18 19 20 21 22 23 24 25 26 27 28 29 30 31 32 33 34 35 36 37 38 39 40 41 42 43 44 45 46 47 48 49 50

000
ASUS43 KFSD 270910
RWRSD

WEATHER ROUNDUP FOR SOUTH DAKOTA
NATIONAL WEATHER SERVICE SIOUX FALLS SD
300 AM CST TUE JAN 27 2015

NOTE: "FAIR" INDICATES FEW OR NO CLOUDS BELOW 12,000 FEET WITH NO
SIGNIFICANT WEATHER AND/OR OBSTRUCTIONS TO VISIBILITY.


SDZ001>005-009-010-012>017-271000-
NORTHWEST AND NORTH CENTRAL SOUTH DAKOTA

CITY           SKY/WX    TMP DP  RH WIND       PRES   REMARKS
BUFFALO          N/A     39  30  70 W6        29.85F
FAITH            N/A     37  29  72 S15       29.92F
MOBRIDGE       CLEAR     32  29  88 SE9       29.93F WCI  24
$$

SDZ012>016-024>037-041>051-057-063-072>074-271000-
SOUTHWEST AND SOUTH CENTRAL SOUTH DAKOTA

CITY           SKY/WX    TMP DP  RH WIND       PRES   REMARKS
RAPID CTY ARPT CLEAR     40  26  57 NW6       29.96S
PIERRE         CLEAR     32  28  85 E7        29.97S WCI  26
CUSTER         CLEAR     44  21  40 W9        30.07F
ELLSWORTH AFB  CLEAR     46  25  43 W6        29.95F
PHILIP         CLEAR     27  23  85 W5        29.95F WCI  22
PINE RIDGE     CLEAR     42  27  55 SW8       30.03S
SPEARFISH      FAIR      50  25  37 W5        29.98S
WINNER         FAIR      39  31  72 S9        29.99F
$$

SDZ004>011-016>023-039-040-271000-
NORTHEAST SOUTH DAKOTA

CITY           SKY/WX    TMP DP  RH WIND       PRES   REMARKS
ABERDEEN       PTCLDY    28  26  92 S3        30.02R
WATERTOWN      CLEAR     26  24  92 S3        30.02S
SISSETON         N/A     27  27 100 S5        30.04R WCI  22
$$

SDZ017-020-022-023-036>040-048>070-271000-
SOUTHEAST SOUTH DAKOTA

CITY           SKY/WX    TMP DP  RH WIND       PRES   REMARKS
SIOUX FALLS    CLEAR     28  26  92 CALM      30.05R
HURON          CLEAR     27  26  96 S5        30.03R WCI  22
CHAMBERLAIN    CLEAR     32  29  90 SE7       30.01S WCI  26
MITCHELL       CLEAR     29  28  96 SW6       30.05S WCI  23
YANKTON        CLEAR     28  25  86 SW6       30.07R WCI  22
$$

ABBREVIATIONS USED IN REMARKS
   TC - TEMPERATURE IN CELSIUS
  WCI - WIND CHILL INDEX
   HX - HEAT INDEX
  VSB - VISIBILITY



USA.gov is the U.S. government's official web portal to all federal, state and local government web resources and services.